KURESSAARE current weather conditions

sailwx.info

Wind from 240 at 9 knots

Air temperature 5.0° C
Visibility: greater than 3.2 NM
Dewpoint 5.0° C

Last reported at 2015-Apr-25 02:50 UTC.
Time now 2015-Apr-25 04:18 UTC

Location: N 58°14' E 022°31'.
View on Google Maps.

See reports from other nearby stations

  
Tides and Currents Weather Stations Pressure Air Temp Water Temp Dewpoint Dewpoint Depression Visibility Wind Speed Wind Dir Waves Ship Positions
date/time (UTC)wind fromknots sea level pressurealtimeterstation pressurevisibilityair tempwater tempwave heightnotes
2015-Apr-25 02:50 240 9 3.2 5.0
2015-Apr-25 01:50 240 8 3.8 6.0
2015-Apr-25 00:50 240 5 5.4 6.0
2015-Apr-24 23:50 220 6 5.4 6.0
2015-Apr-24 22:50 220 5 5.4 5.0
2015-Apr-24 21:50 220 5 5.4 6.0
2015-Apr-24 20:50 220 5 5.4 5.0
2015-Apr-24 19:50 240 7 5.4 6.0
2015-Apr-24 18:50 250 6 5.4 6.0
2015-Apr-24 17:50 260 5 5.4 6.0
2015-Apr-24 16:50 280 6 5.4 8.0
2015-Apr-24 15:50 290 9 8.0
2015-Apr-24 14:50 310 11 9.0
2015-Apr-24 13:50 310 11 9.0
2015-Apr-24 12:50 340 14 9.0
2015-Apr-24 11:50 310 16 5.410.0
2015-Apr-24 10:50 290 11 gusting 20 12.0
2015-Apr-24 09:50 240 13 5.4 9.0
2015-Apr-24 08:50 230 7 11.0
2015-Apr-24 07:50 250 9 10.0
2015-Apr-24 06:50 230 4 9.0
2015-Apr-24 05:50 8.0
2015-Apr-24 04:50 360 3 5.0
2015-Apr-24 03:50 5.4-0.0
2015-Apr-24 02:50 190 4 5.4 4.0
2015-Apr-24 01:50 180 7 5.4 6.0
2015-Apr-24 00:50 220 6 5.4 6.0
2015-Apr-23 23:50 210 5 5.4 6.0
2015-Apr-23 22:50 220 6 5.4 6.0
2015-Apr-23 21:50 220 4 5.4 6.0
2015-Apr-23 20:50 230 6 5.4 6.0
2015-Apr-23 19:50 230 8 5.4 6.0
2015-Apr-23 18:50 260 7 5.4 6.0
2015-Apr-23 17:50 280 4 5.4 7.0
2015-Apr-23 16:50 330 6 5.4 8.0
2015-Apr-23 15:50 340 10 9.0
2015-Apr-23 14:50 340 11 9.0
2015-Apr-23 13:50 340 14 gusting 25 9.0
2015-Apr-23 12:50 330 15 gusting 27 9.0
2015-Apr-23 11:50 330 15 gusting 27 10.0
2015-Apr-23 10:50 310 17 gusting 29 9.0
2015-Apr-23 09:50 330 18 gusting 32 9.0
2015-Apr-23 08:50 340 17 gusting 27 10.0
2015-Apr-23 07:50 340 19 10.0
2015-Apr-23 06:50 320 14 gusting 24 10.0
2015-Apr-23 05:50 300 12 10.0
2015-Apr-23 04:50 300 11 gusting 24 9.0